Location: Unspecified
(0.0000°N, 0.0000°E)
Time: 22:02:44
(UTC+00:00)

Vanguard 3 - Visible Passes

Search period start: 18 October 2017 00:00
Search period end: 28 October 2017 00:00
Orbit: 510 x 3263 km, 33.3° (Epoch: 18 October)

Date Brightness Start Highest point End Pass type
(mag) Time Alt. Az. Time Alt. Az. Time Alt. Az.
18 Oct 10.4 01:51:41 29° NE 01:51:41 29° NE 01:56:09 10° NE visible
18 Oct 9.9 03:56:18 31° NW 03:57:18 31° NW 04:06:45 10° NNE visible
18 Oct 11.2 19:38:58 10° SSW 19:45:50 14° SSE 19:53:49 10° SE visible
18 Oct 10.8 21:51:09 10° SSW 22:01:19 29° S 22:01:19 29° S visible
19 Oct 11.3 00:05:14 10° SW 00:42:29 - ENE 00:05:51 12° SW visible
19 Oct 9.9 02:47:06 39° N 02:47:06 39° N 02:54:06 10° NE visible
19 Oct 10.3 04:51:43 11° WNW 04:56:53 14° NW 05:02:08 10° N visible
19 Oct 10.9 20:37:00 10° SSW 20:48:33 22° SSE 20:51:12 21° SE visible
19 Oct 11.0 22:49:38 10° SW 22:55:45 26° SSW 22:55:45 26° SSW visible
20 Oct 10.7 01:37:48 20° NE 01:37:48 20° NE 01:40:28 10° NE visible
20 Oct 10.1 03:42:25 28° NNW 03:42:25 28° NNW 03:51:06 10° NNE visible
20 Oct 11.1 19:23:56 10° S 19:30:36 14° SSE 19:38:26 10° SE visible
20 Oct 10.7 21:34:57 10° SSW 21:45:39 32° S 21:45:39 32° S visible
20 Oct 11.4 23:48:43 10° SW 00:28:26 - ENE 23:50:11 14° SW visible
21 Oct 10.3 02:33:02 29° NNE 02:33:02 29° NNE 02:38:23 10° NNE visible
21 Oct 10.5 04:37:38 12° NW 04:41:23 13° NNW 04:46:26 10° N visible
21 Oct 10.8 20:21:10 10° SSW 20:32:47 24° SSE 20:35:35 23° SE visible
21 Oct 10.8 22:33:16 10° SW 22:40:08 30° SSW 22:40:08 30° SSW visible
22 Oct 11.0 01:23:36 14° NE 01:23:36 14° NE 01:24:40 10° NE visible
22 Oct 10.3 03:28:12 24° NNW 03:28:12 24° NNW 03:35:24 10° NNE visible
22 Oct 11.0 19:08:40 10° S 19:15:18 14° SSE 19:23:13 10° SE visible
22 Oct 10.5 21:18:50 10° SSW 21:30:06 37° SSE 21:30:06 37° SSE visible
22 Oct 11.3 23:32:21 10° SW 23:34:39 16° SW 23:34:39 16° SW visible
23 Oct 10.6 02:18:41 22° NNE 02:18:41 22° NNE 02:22:34 10° NNE visible
23 Oct 10.6 04:23:18 12° NW 04:25:58 13° NNW 04:30:46 10° N visible
23 Oct 10.7 20:05:20 10° SSW 20:16:53 26° SSE 20:20:07 24° SE visible
23 Oct 10.6 22:17:02 10° SW 22:24:40 35° SSW 22:24:40 35° SSW visible
24 Oct11.201:09:08NE01:09:08NE00:29:13WSWvisible
24 Oct 10.5 03:13:43 21° NNW 03:13:43 21° NNW 03:19:39 10° NNE visible
24 Oct 10.9 18:53:11 10° S 18:59:53 15° SSE 19:08:04 10° ESE visible
24 Oct 10.3 21:02:48 10° SSW 21:14:44 42° SSE 21:14:44 42° SSE visible
24 Oct 11.1 23:16:08 10° SW 23:19:17 19° SW 23:19:17 19° SW visible
25 Oct 10.8 02:04:06 17° NNE 02:04:06 17° NNE 02:06:39 10° NNE visible
25 Oct 10.7 04:08:42 12° NNW 04:10:38 12° NNW 04:15:17 10° N visible
25 Oct 10.5 19:49:30 10° SSW 20:00:54 28° SE 20:04:49 26° SE visible
25 Oct 10.4 22:00:56 10° SW 22:09:23 41° SSW 22:09:23 41° SSW visible
26 Oct11.400:54:27NE00:54:27NE00:13:57WSWvisible
26 Oct 10.7 02:59:02 18° N 02:59:02 18° N 03:03:53 10° NNE visible
26 Oct 10.7 18:37:35 10° S 18:44:24 16° SSE 18:52:54 10° ESE visible
26 Oct 10.1 20:46:51 10° SW 20:59:32 48° SSE 20:59:32 48° SSE visible
26 Oct 11.0 23:00:06 10° WSW 23:04:06 23° WSW 23:04:06 23° WSW visible
27 Oct 11.1 01:49:21 13° NNE 01:49:21 13° NNE 01:50:38 10° NNE visible
27 Oct 10.8 03:53:55 12° NNW 03:55:23 12° NNW 04:00:02 10° N visible
27 Oct 10.3 19:33:44 10° SSW 19:44:49 31° SE 19:49:43 27° ESE visible
27 Oct 10.2 21:45:00 10° SW 21:54:18 48° SW 21:54:18 48° SW visible
